Time,TemperatureF,DewpointF,PressureIn,WindDirection,WindDirectionDegrees,WindSpeedMPH,WindSpeedGustMPH,Humidity,HourlyPrecipIn,Conditions,Clouds,dailyrainin,SoftwareType,DateUTC
2013-04-22 07:00:00,40.3,34.9,30.34,ENE,68,1.3,1.3,81,0.00,,,0.00,WUHU216HW,2013-04-22 11:00:00,
2013-04-22 07:05:00,40.1,34.7,30.34,NNE,23,4.0,4.0,81,0.00,,,0.00,WUHU216HW,2013-04-22 11:05:00,
2013-04-22 07:10:00,40.1,34.7,30.34,NNE,23,4.0,4.0,81,0.00,,,0.00,WUHU216HW,2013-04-22 11:10:00,
2013-04-22 07:30:00,40.5,35.1,30.35,North,0,1.6,1.6,81,0.00,,,0.00,WUHU216HW,2013-04-22 11:30:00,
2013-04-22 07:35:00,40.5,35.1,30.35,North,0,1.6,1.6,81,0.00,,,0.00,WUHU216HW,2013-04-22 11:35:00,
2013-04-22 08:00:00,41.0,35.3,30.35,NE,45,1.3,1.3,80,0.00,,,0.00,WUHU216HW,2013-04-22 12:00:00,
2013-04-22 08:05:00,41.0,35.3,30.35,NE,45,1.3,1.3,80,0.00,,,0.00,WUHU216HW,2013-04-22 12:05:00,
2013-04-22 08:30:00,42.8,36.5,30.34,NE,45,3.8,3.8,78,0.00,,,0.00,WUHU216HW,2013-04-22 12:30:00,
2013-04-22 08:35:00,42.8,36.5,30.34,NE,45,3.8,3.8,78,0.00,,,0.00,WUHU216HW,2013-04-22 12:35:00,
2013-04-22 09:00:00,45.7,38.6,30.34,ENE,68,4.7,4.7,76,0.00,,,0.00,WUHU216HW,2013-04-22 13:00:00,
2013-04-22 09:05:00,45.7,38.6,30.34,ENE,68,4.7,4.7,76,0.00,,,0.00,WUHU216HW,2013-04-22 13:05:00,
2013-04-22 09:30:00,48.4,40.1,30.34,NE,45,12.8,12.8,73,0.00,,,0.00,WUHU216HW,2013-04-22 13:30:00,
2013-04-22 09:35:00,48.4,40.1,30.34,NE,45,12.8,12.8,73,0.00,,,0.00,WUHU216HW,2013-04-22 13:35:00,
2013-04-22 10:00:00,50.4,41.8,30.34,NNE,23,10.3,10.3,72,0.00,,,0.00,WUHU216HW,2013-04-22 14:00:00,
2013-04-22 10:05:00,50.4,41.8,30.34,NNE,23,10.3,10.3,72,0.00,,,0.00,WUHU216HW,2013-04-22 14:05:00,
2013-04-22 10:30:00,52.6,42.8,30.34,North,0,2.5,2.5,69,0.00,,,0.00,WUHU216HW,2013-04-22 14:30:00,
2013-04-22 10:35:00,52.6,42.8,30.34,North,0,2.5,2.5,69,0.00,,,0.00,WUHU216HW,2013-04-22 14:35:00,
2013-04-22 11:00:00,52.9,42.2,30.34,NE,45,3.6,3.6,67,0.00,,,0.00,WUHU216HW,2013-04-22 15:00:00,
2013-04-22 11:05:00,52.9,42.2,30.34,NE,45,3.6,3.6,67,0.00,,,0.00,WUHU216HW,2013-04-22 15:05:00,
2013-04-22 11:30:00,54.5,43.0,30.33,North,0,2.9,2.9,65,0.00,,,0.00,WUHU216HW,2013-04-22 15:30:00,
2013-04-22 11:35:00,54.5,43.0,30.33,North,0,2.9,2.9,65,0.00,,,0.00,WUHU216HW,2013-04-22 15:35:00,
2013-04-22 12:00:00,55.3,43.3,30.31,North,0,6.9,6.9,64,0.00,,,0.00,WUHU216HW,2013-04-22 16:00:00,
2013-04-22 12:05:00,55.3,43.3,30.31,North,0,6.9,6.9,64,0.00,,,0.00,WUHU216HW,2013-04-22 16:05:00,
2013-04-22 12:30:00,57.6,44.6,30.29,North,0,7.8,7.8,62,0.00,,,0.00,WUHU216HW,2013-04-22 16:30:00,
2013-04-22 12:35:00,57.6,44.6,30.29,North,0,7.8,7.8,62,0.00,,,0.00,WUHU216HW,2013-04-22 16:35:00,
2013-04-22 13:00:00,59.9,46.1,30.28,NE,45,8.9,8.9,60,0.00,,,0.00,WUHU216HW,2013-04-22 17:00:00,
2013-04-22 13:05:00,59.9,46.1,30.28,NE,45,8.9,8.9,60,0.00,,,0.00,WUHU216HW,2013-04-22 17:05:00,
2013-04-22 13:30:00,62.3,46.8,30.27,North,0,2.5,2.5,57,0.00,,,0.00,WUHU216HW,2013-04-22 17:30:00,
2013-04-22 13:35:00,62.3,46.8,30.27,North,0,2.5,2.5,57,0.00,,,0.00,WUHU216HW,2013-04-22 17:35:00,
2013-04-22 14:00:00,63.5,46.0,30.25,North,0,6.9,6.9,53,0.00,,,0.00,WUHU216HW,2013-04-22 18:00:00,
2013-04-22 14:05:00,63.5,46.0,30.25,North,0,6.9,6.9,53,0.00,,,0.00,WUHU216HW,2013-04-22 18:05:00,
2013-04-22 14:30:00,63.9,45.8,30.24,ENE,68,5.4,5.4,52,0.00,,,0.00,WUHU216HW,2013-04-22 18:30:00,
2013-04-22 14:35:00,63.9,45.8,30.24,ENE,68,5.4,5.4,52,0.00,,,0.00,WUHU216HW,2013-04-22 18:35:00,
2013-04-22 15:00:00,65.3,47.7,30.24,NE,45,5.8,5.8,53,0.00,,,0.00,WUHU216HW,2013-04-22 19:00:00,
2013-04-22 15:05:00,65.3,47.7,30.24,NE,45,5.8,5.8,53,0.00,,,0.00,WUHU216HW,2013-04-22 19:05:00,
2013-04-22 15:30:00,64.6,47.0,30.22,NNE,23,3.4,3.4,53,0.00,,,0.00,WUHU216HW,2013-04-22 19:30:00,
2013-04-22 15:35:00,64.6,47.0,30.22,NNE,23,3.4,3.4,53,0.00,,,0.00,WUHU216HW,2013-04-22 19:35:00,
2013-04-22 16:00:00,64.6,47.0,30.21,North,0,8.5,8.5,53,0.00,,,0.00,WUHU216HW,2013-04-22 20:00:00,
2013-04-22 16:05:00,64.6,47.0,30.21,North,0,8.5,8.5,53,0.00,,,0.00,WUHU216HW,2013-04-22 20:05:00,
2013-04-22 16:30:00,63.2,45.2,30.20,North,0,3.6,3.6,52,0.00,,,0.00,WUHU216HW,2013-04-22 20:30:00,
2013-04-22 16:36:00,63.2,45.2,30.20,North,0,3.6,3.6,52,0.00,,,0.00,WUHU216HW,2013-04-22 20:36:00,
2013-04-22 17:00:00,62.5,45.6,30.20,NE,45,4.7,4.7,54,0.00,,,0.00,WUHU216HW,2013-04-22 21:00:00,
2013-04-22 17:05:00,62.5,45.6,30.20,NE,45,4.7,4.7,54,0.00,,,0.00,WUHU216HW,2013-04-22 21:05:00,
2013-04-22 17:30:00,63.4,46.8,30.20,North,0,1.8,1.8,55,0.00,,,0.00,WUHU216HW,2013-04-22 21:30:00,
2013-04-22 17:32:00,63.4,46.8,30.20,North,0,1.8,1.8,55,0.00,,,0.00,WUHU216HW,2013-04-22 21:32:00,
2013-04-22 17:37:00,63.4,46.8,30.20,North,0,1.8,1.8,55,0.00,,,0.00,WUHU216HW,2013-04-22 21:37:00,
2013-04-22 18:00:00,62.5,46.5,30.19,ENE,68,2.9,2.9,56,0.00,,,0.00,WUHU216HW,2013-04-22 22:00:00,
2013-04-22 18:05:00,62.5,46.5,30.19,ENE,68,2.9,2.9,56,0.00,,,0.00,WUHU216HW,2013-04-22 22:05:00,
2013-04-22 18:30:00,61.6,45.7,30.20,NNE,23,7.4,7.4,56,0.00,,,0.00,WUHU216HW,2013-04-22 22:30:00,
2013-04-22 18:35:00,61.6,45.7,30.20,NNE,23,7.4,7.4,56,0.00,,,0.00,WUHU216HW,2013-04-22 22:35:00,
2013-04-22 19:00:00,60.1,45.8,30.20,NNE,23,13.9,13.9,59,0.00,,,0.00,WUHU216HW,2013-04-22 23:00:00,
2013-04-22 19:05:00,60.1,45.8,30.20,NNE,23,13.9,13.9,59,0.00,,,0.00,WUHU216HW,2013-04-22 23:05:00,
2013-04-22 19:30:00,59.4,46.4,30.21,NE,45,4.0,4.0,62,0.00,,,0.00,WUHU216HW,2013-04-22 23:30:00,
2013-04-22 19:35:00,59.4,46.4,30.21,NE,45,4.0,4.0,62,0.00,,,0.00,WUHU216HW,2013-04-22 23:35:00,
2013-04-22 20:00:00,58.3,45.7,30.21,NE,45,4.0,4.0,63,0.00,,,0.00,WUHU216HW,2013-04-23 00:00:00,
2013-04-22 20:05:00,58.3,45.7,30.21,NE,45,4.0,4.0,63,0.00,,,0.00,WUHU216HW,2013-04-23 00:05:00,
2013-04-22 20:30:00,57.4,45.7,30.22,North,0,5.1,5.1,65,0.00,,,0.00,WUHU216HW,2013-04-23 00:30:00,
2013-04-22 20:35:00,57.4,45.7,30.22,North,0,5.1,5.1,65,0.00,,,0.00,WUHU216HW,2013-04-23 00:35:00,
2013-04-22 21:00:00,56.7,46.3,30.22,NE,45,3.8,3.8,68,0.00,,,0.00,WUHU216HW,2013-04-23 01:00:00,
2013-04-22 21:05:00,56.7,46.3,30.22,NE,45,3.8,3.8,68,0.00,,,0.00,WUHU216HW,2013-04-23 01:05:00,
2013-04-22 21:30:00,56.0,46.0,30.23,East,90,4.9,4.9,69,0.00,,,0.00,WUHU216HW,2013-04-23 01:30:00,
2013-04-22 21:35:00,56.0,46.0,30.23,East,90,4.9,4.9,69,0.00,,,0.00,WUHU216HW,2013-04-23 01:35:00,
2013-04-22 22:00:00,55.1,45.5,30.23,NE,45,5.4,5.4,70,0.00,,,0.00,WUHU216HW,2013-04-23 02:00:00,
2013-04-22 22:05:00,55.1,45.5,30.23,NE,45,5.4,5.4,70,0.00,,,0.00,WUHU216HW,2013-04-23 02:05:00,
2013-04-22 22:30:00,54.4,45.6,30.24,East,90,4.7,4.7,72,0.00,,,0.00,WUHU216HW,2013-04-23 02:30:00,
2013-04-22 22:35:00,54.4,45.6,30.24,East,90,4.7,4.7,72,0.00,,,0.00,WUHU216HW,2013-04-23 02:35:00,